Preview of NWS' New Version of Forecast
This preview is not operational and should not be used for support decisions.
Latest weather observations around

Edwards Air Force Base (KEDW)

Using English Units (Switch to International System of Units)
Date/ Time (PST) Wind (mph) Vis. (mi) Weather Sky Cond. Temp (°F) Rel. Humidity Wind Chill (°F) Heat Index (°F) Pressure Precip. (in)
Air Dwpt 6 hour Altimeter (inHg) Sea level (inHg) 1 hr 3 hr 6 hr
Max Min
Feb 19 18:56 W 14 10 Clear CLR 38 11     33% 29   29.88 29.91      
Feb 19 17:56 W 14 10 Clear CLR 39 10     29% 31   29.87 29.9      
Feb 19 16:56 W 21 10 Clear and Windy CLR 42 11     28% 33   29.85 29.87      
Feb 19 15:56 W 25 10 Clear and Windy CLR 44 11     26% 34   29.84 29.85     0
Feb 19 14:56 W 25 10 Mostly Clear and Windy FEW070 44 11     25% 35   29.83 29.84      
Feb 19 13:56 W 24 10 Mostly Clear and Windy FEW075 44 12     27% 34   29.83 29.84 0    
Feb 19 13:43 W 21 10 Mostly Clear and Windy FEW085 45 12     26% 36   29.83 29.84      
Feb 19 13:34 WNW 20 10 Light Rain FEW060 BKN085 43 14     31% 34   29.84 29.85      
Feb 19 13:11 WNW 21 10 Mostly Cloudy and Windy SCT060 BKN075 BKN100 43 14     31% 34   29.83 29.84      
Feb 19 12:56 WNW 16 10 Partly Cloudy SCT060 SCT080 SCT100 43 13     29% 36   29.84 29.85      
Feb 19 11:56 W 18 10 Clear CLR 43 13     29% 35   29.85 29.85      
Feb 19 10:56 W 21 10 Clear and Windy CLR 43 11     27% 34   29.86 29.87      
Feb 19 09:56 W 17 10 Clear CLR 41 16     37% 32   29.86 29.87      
Feb 19 08:56 W 15 10 Clear CLR 39 17     41% 31     29.87      
Feb 19 07:56 W 20 10 Clear and Windy CLR 37 17     44% 27     29.85      
Feb 19 06:56 W 11 10 Clear CLR 35 20     55% 26     29.85      
Feb 19 05:56 W 13 10 Clear CLR 36 20     52% 27   29.82 29.83      
Feb 19 04:56 W 17 10 Clear CLR 38 17     42% 29     29.79      
Feb 19 04:38 WSW 22 10 Clear and Windy CLR 39 18     41% 29     29.78      
Feb 19 03:56 WNW 14 10 Mostly Clear FEW060 38 21     49% 30     29.79      
Feb 19 03:41 WNW 20 10 Partly Cloudy and Windy SCT049 SCT055 39 19     45% 30     29.79      
Feb 19 02:56 WNW 23 10 Mostly Cloudy and Windy BKN037 40 23     50% 29     29.75      
Feb 19 02:41 WNW 28 10 Mostly Cloudy and Breezy BKN035 39 25     56% 28     29.75      
Feb 19 02:11 WNW 20 10 Partly Cloudy and Windy SCT039 41 27     56% 32     29.75      
Feb 19 01:56 W 18 10 Mostly Cloudy BKN039 41 25     53% 32   29.77 29.75      
Feb 19 00:56 W 17 10 Mostly Clear FEW050 42 26     53% 34   29.76 29.74      
Feb 18 23:56 WSW 17 10 Cloudy OVC049 45 27     49% 38   29.75 29.73      
Feb 18 22:56 WSW 20 10 Mostly Cloudy and Windy BKN050 47 29     50% 40   29.76 29.74      
Feb 18 21:56   10 Clear CLR 47 38     69%       29.71      
Feb 18 20:56 SW 26 10 Clear and Breezy CLR 49 35     60% 41     29.72      
Feb 18 19:56 SW 25 10 Clear and Windy CLR 50 34     54% 43   29.74 29.73      
Feb 18 18:56 SW 15 10 Clear CLR 52 30     42%     29.76 29.75      
Feb 18 17:56 SW 28 10 Clear and Breezy CLR 55 31     39%     29.74 29.73      
Feb 18 16:56 SW 26 10 Clear and Breezy CLR 60 30     33%     29.75 29.73      
Feb 18 15:56 SW 26 50.89 Mostly Clear and Breezy FEW120 FEW250 63 27     26%     29.76 29.74      
Feb 18 14:58 SW 28 50.89 Mostly Clear and Breezy FEW120 FEW250 64 26     24%     29.76 29.73      
Feb 18 13:58 SW 30 50.89 Mostly Clear and Breezy FEW120 FEW250 65 27     24%     29.77 29.74      
Feb 18 12:58 SW 24 50.89 Mostly Clear and Windy FEW120 FEW250 66 26     22%     29.8 29.77      
Feb 18 11:58 SW 26 50.89 Mostly Clear and Breezy FEW120 FEW250 65 25     22%     29.84 29.81      
Feb 18 11:31 SW 29 50.89 Mostly Clear and Breezy FEW120 FEW250 64 25     22%     29.85 29.82      
Feb 18 10:58 SW 24 50.89 Mostly Clear and Windy FEW120 FEW250 64 26     24%     29.88 29.85      
Feb 18 09:58 WSW 24 50.89 Mostly Clear and Windy FEW250 61 28     28%     29.89 29.87      
Feb 18 08:58   50.89 Mostly Clear FEW250 57 31     38%     29.89 29.88      
Feb 18 07:58 SW 13 10 Clear CLR 51 29     44%     29.91 29.9      
Feb 18 06:58 SW 14 10 Clear CLR 48 26     41% 43   29.91 29.9      
Feb 18 05:58 SW 10 10 Clear CLR 46 25     43% 41   29.91 29.89      
Feb 18 04:58 SSW 3 10 Clear CLR 46 23     40% 45   29.91 29.88      
Feb 18 03:58 SW 15 10 Clear CLR 48 22     36% 42   29.92 29.9      
Feb 18 02:58 WSW 14 10 Clear CLR 48 21     34% 43   29.94 29.92      
Feb 18 01:58 SW 10 10 Clear CLR 49 23     36% 45   29.95 29.93      
Feb 18 00:58 WSW 14 10 Clear CLR 49 21     34% 43   29.96 29.94      
Feb 17 23:58 SW 11 10 Clear CLR 51 20     30%     29.98 29.96      
Feb 17 22:58 WSW 17 10 Clear CLR 50 17     26%     29.98 29.97      
Feb 17 21:58 Calm 10 Clear CLR 46 15     28%     30 30      
Feb 17 20:58 SW 9 10 Clear CLR 46 15     28% 42   30 30.01      
Feb 17 19:58 SW 8 10 Clear CLR 51 9     18%     30.01 30.02      
Feb 17 18:58 WSW 9 10 Clear CLR 52 6     15%     30.02 30.04      
Feb 17 17:58 SSW 3 50.89 Partly Cloudy SCT300 60 7     12%     30.02 30.03      
Feb 17 16:58 S 5 50.89 Mostly Clear FEW300 67 3     8%     30.04 30.04      
Feb 17 15:58 Calm 50.89 Mostly Clear FEW300 68 4     8%     30.05 30.05      
Feb 17 14:58 Calm 50.89 Mostly Clear FEW300 65 2     8%     30.07 30.07      
Feb 17 12:58 Calm 50.89 Mostly Clear FEW300 63 8     11%     30.13 30.13      
Feb 17 11:58 Calm 50.89 Mostly Clear FEW300 58 11     15%     30.16 30.16      
Feb 17 10:58 Calm 50.89 Mostly Clear FEW300 53 11     18%     30.19 30.2      
Feb 17 09:58 Calm 50.89 Mostly Clear FEW300 46 9     22%     30.21 30.23      
Feb 17 08:58 S 3 50.89 Clear CLR 41 8     26% 39   30.21 30.23      
Feb 17 07:58 SW 3 50.89 Clear CLR 34 9     34% 31   30.19 30.22      
Feb 17 06:58 Calm 50.89 Mostly Clear FEW300 28 1     31%     30.17 30.19      
Feb 17 05:58 N 3 10 Clear CLR 29 0     29% 25   30.16 30.18      
Feb 17 04:58 N 5 10 Clear CLR 29 1     30% 24   30.15 30.16      
Feb 17 03:58 Calm 10 Clear CLR 30 3     32%     30.15 30.16      
Feb 17 02:58 SSE 5 10 Clear CLR 28 3     33% 23   30.16 30.17      
Feb 17 01:58 WSW 5 10 Clear CLR 33 10     37% 29   30.17 30.17      
Feb 17 00:58 Calm 10 Clear CLR 35 1     24%     30.17 30.18      
Feb 16 23:58 Calm 10 Clear CLR 36        %     30.17 30.18      
Feb 16 22:58 Calm 10 Clear CLR 36 6     27%     30.17 30.18      
Feb 16 21:58 SW 6 50 Clear CLR 41 9     27% 37   30.16 30.17      
Feb 16 20:58 SSE 5 50 Clear CLR 42 2     18% 39   30.15 30.17      
Feb 16 19:58 SE 3 50 Clear CLR 45 1     16% 43   30.14 30.17      
Jun 12 03:58 W 14 10 Clear CLR 51 35     54%     29.96 29.93      
Jun 11 15:58 WSW 29 50.89 Partly Cloudy and Breezy SCT045 SCT180 68 44     43%     29.82 29.78      
Jun 11 12:58 WSW 25 50.89 Clear and Windy   69 43     40%     29.82 29.78      
Jun 11 07:58 WSW 25 10 Clear and Windy CLR 58 39     50%     29.8 29.76      
Jun 10 15:58 SW 32 50 Mostly Cloudy and Breezy FEW200 BKN260 74 48     40%   73 29.76 29.71      
Jun 10 11:58 SW 21 50 Mostly Cloudy and Windy BKN300 74 40     30%   73 29.8 29.75      
Jun 10 08:58 WSW 24 50 Mostly Clear and Windy FEW300 67 46     46%     29.82 29.77      
Jun 10 06:58 SW 15 50 Clear CLR 60 49     67%     29.82 29.77      
Jun 09 13:58 SW 22 50 Mostly Clear and Windy FEW060 FEW280 83 48     29%   82 29.84 29.78      
Jun 08 21:58 WSW 15 40 Clear CLR 74 27     17%   71 29.91 29.85      
Jun 08 18:58 WNW 21 50.89 Mostly Cloudy and Windy BKN280 83        %     29.87 29.81      
Jun 08 16:58 SW 24 50.89 Mostly Cloudy and Windy BKN280 87 40     19%   83 29.87 29.8      
Jun 08 14:58 SW 25 50.89 Mostly Cloudy and Windy BKN280 88 41     20%   84 29.89 29.82      
Jun 08 10:58 SW 11 50.89 Mostly Cloudy FEW150 BKN250 81 37     20%   80 29.93 29.86      
Jun 08 05:58 SW 10 50.89 Mostly Cloudy BKN250 61 46     57%     29.93 29.87      
Notice The following observation data may not be complete
Jun 07 20:58   40 Mostly Cloudy BKN300          %              
Jun 07 19:58 SW 20 50.89 Partly Cloudy and Windy SCT300 79 33     19%   77 29.85 29.78      
Jun 07 13:15 WSW 13 50.89 Mostly Cloudy BKN300 95 21     7%   89 29.87 29.79      
Jun 07 12:58 SSW 9 50.89 Mostly Cloudy BKN300 94        %     29.88 29.8      
Jun 06 00:58 SSW 8 10 Clear CLR 68 38     34%     29.87 29.8      
Jun 05 21:58 SW 11 50 Partly Cloudy SCT330 75 41     29%   74 29.88 29.8      
Jun 05 20:58 WSW 14 50 Partly Cloudy SCT330 79 44     29%   78 29.86 29.78      
Jun 05 15:16   50.89 Mostly Clear FEW330 97 23     7%   90 29.8 29.72      
Jun 05 14:58 WSW 16 50.89 Mostly Clear FEW330 97        %     29.81 29.73      
Notice The following observation data may not be complete
Jun 05 12:58   50.89 Mostly Clear FEW300          %